Location: Bédeille
(43.0872°N, 1.1041°E)
Time: 11:46:02
(UTC+00:00)

PAYLOAD B - Visible Passes

Search period start: 28 September 2023 00:00
Search period end: 08 October 2023 00:00
Orbit: 848 x 871 km, 99.1° (Epoch: 28 September)

Date Brightness Start Highest point End Pass type
(mag) Time Alt. Az. Time Alt. Az. Time Alt. Az.
28 Sep 5.3 19:36:46 10° S 19:42:04 44° W 19:47:22 10° NNW visible
29 Sep 5.0 19:27:25 10° S 19:32:50 53° W 19:38:17 10° NNW visible
30 Sep 4.6 19:18:06 10° S 19:23:37 64° WSW 19:29:09 10° NNW visible
01 Oct 4.4 19:08:51 10° S 19:14:25 77° WSW 19:19:59 10° NNW visible
02 Oct 4.2 18:59:39 10° SSE 19:05:14 90° NE 19:10:48 10° NNW visible
02 Oct 7.0 20:44:37 10° WSW 20:46:47 12° W 20:48:56 10° WNW visible
03 Oct 4.1 18:50:30 10° SSE 18:56:02 76° ENE 19:01:35 10° N visible
03 Oct 6.9 20:34:21 10° SW 20:37:27 15° W 20:40:33 10° NW visible
04 Oct 4.2 18:41:23 10° SSE 18:46:52 64° ENE 18:52:21 10° N visible
04 Oct 6.7 20:24:24 10° SW 20:28:09 18° W 20:31:54 10° NW visible
05 Oct 4.4 18:32:21 10° SE 18:37:43 53° ENE 18:43:05 10° N visible
05 Oct 6.4 20:14:38 10° SW 20:18:51 22° W 20:23:04 10° NW visible
06 Oct 4.5 18:23:20 10° SE 18:28:34 45° ENE 18:33:48 10° N visible
06 Oct 6.2 20:04:58 10° SSW 20:09:34 26° W 20:14:10 10° NW visible
07 Oct 4.7 18:14:22 10° SE 18:19:26 38° ENE 18:24:29 10° N visible
07 Oct 5.9 19:55:25 10° SSW 20:00:18 31° W 20:05:11 10° NW visible
